This demonstration page uses our WeatherBlox Daily Observations layout. Learn more.

Left ArrowRight Arrow

38.80484, -77.04692

Hourly Observations for October 24, 2019

Temp ( °F °C ) Dew Point ( °F °C ) Humidity (%) Winds ( mph kmh ) Pressure ( in mb ) Visibility ( mi km ) Precip ( " mm )
12:52 am 00:52 Clear 49 9.4 37 2.8 64 64 Calm 30.23 1024 10 16 0.00 0.00
1:52 am 01:52 Clear 49 9.4 41 5 74 74 Calm 30.25 1024 10 16 0.00 0.00
2:52 am 02:52 Clear 47 8.3 42 5.6 83 83 Calm 30.26 1025 10 16 0.00 0.00
3:52 am 03:52 Clear 47 8.3 42 5.6 83 83 Calm 30.26 1025 10 16 0.00 0.00
4:52 am 04:52 Clear 45 7.2 43 6.1 93 93 Calm 30.29 1026 10 16 0.00 0.00
5:52 am 05:52 Clear 47 8.3 43 6.1 86 86 Calm 30.31 1027 10 16 0.00 0.00
6:52 am 06:52 Clear 46 7.8 44 6.7 93 93 NNE 3 6 30.32 1027 10 16 0.00 0.00
7:52 am 07:52 Sunny 47 8.3 43 6.1 86 86 NE 3 6 30.33 1027 10 16 0.00 0.00
8:52 am 08:52 Sunny 50 10 42 5.6 74 74 NNE 3 6 30.35 1028 10 16 0.00 0.00
9:52 am 09:52 Sunny 53 11.7 42 5.6 66 66 NE 5 7 30.36 1028 10 16 0.00 0.00
10:52 am 10:52 Sunny 58 14.4 44 6.7 60 60 Calm 30.36 1028 10 16 0.00 0.00
11:52 am 11:52 Sunny 62 16.7 42 5.6 48 48 S 3 6 30.35 1028 10 16 0.00 0.00
12:52 pm 12:52 Sunny 65 18.3 39 3.9 39 39 SSW 8 13 30.32 1027 10 16 0.00 0.00
1:52 pm 13:52 Sunny 68 20 38 3.3 33 33 S 7 11 30.30 1026 10 16 0.00 0.00
2:52 pm 14:52 Mostly Sunny 68 20 41 5 38 38 S 7 11 30.29 1026 10 16 0.00 0.00
3:52 pm 15:52 Sunny 68 20 43 6.1 40 40 SSW 5 7 30.28 1025 10 16 0.00 0.00
4:52 pm 16:52 Sunny 67 19.4 45 7.2 45 45 S 7 11 30.28 1025 10 16 0.00 0.00
5:52 pm 17:52 Sunny 65 18.3 45 7.2 49 49 SSW 6 9 30.28 1026 10 16 0.00 0.00
6:52 pm 18:52 Clear 62 16.7 47 8.3 58 58 SSW 3 6 30.29 1026 10 16 0.00 0.00
7:52 pm 19:52 Clear 59 15 53 11.7 81 81 Calm 30.30 1026 10 16 0.00 0.00
9:52 pm 21:52 Clear 57 13.9 53 11.7 87 87 S 6 9 30.32 1027 10 16 0.00 0.00
10:52 pm 22:52 Clear 56 13.3 52 11.1 87 87 S 6 9 30.33 1027 10 16 0.00 0.00
11:52 pm 23:52 Clear 54 12.2 53 11.7 97 97 SSW 5 7 30.32 1027 10 16 0.00 0.00

Powered by AerisWeather